Content
SEND FEEDBACK

Daily
Averages
Monthly
Summary
United States of America

CHICAGO, ILLINOIS


Home > North America > United States > Illinois
Elevation: 674 feet     Latitude: 41 59N     Longitude: 087 54W

WEATHER
 
SELECT A DAY
Number of Records: 197,791;   Date Range: 7/8/95 - 10/19/14
 
SHARE

PRINT THIS DATA

[ ← Previous Day ]
WEATHER ALMANAC - JANUARY 21, 2013
[ Next Day → ]
[ °C ]   °F
Weather ElementAverageHighLow
Temperature8.4 °F12.9 °F (1:52 am)3 °F (10:52 pm)
Dewpoint-4.2 °F1.9 °F (7:51 am)-9.9 °F (8:52 pm)
Humidity57.3 %73 % (7:50 am)42 % (1:52 pm)
Barometer30.21 in30.31 in (8:52 pm)30.13 in (6:35 am)
Wind Speed14 mph19.6 mph (12:12 pm)
Wind Gust28.8 mph (4:52 pm)
Weather ElementAverage
Visibility7.9 mi
Wind DirectionWNW (291.8 °)

Weather ElementTotal
Precipitation---
Heating Degree Days57.1 (Base 65)
Averaged from 33 records on January 21, 2013
WEATHER CONDITIONS BREAKOUT
WIND DIRECTION BREAKOUT
WEATHER BY HOUR - JANUARY 21, 2013
[ °C ]   °F
Local TimeTemperatureDewpointHumidityBarometerVisibilityWind DirectionWind SpeedGust SpeedPrecipitationEventsConditions
1:52 AM12.9 °F1.0 °F59 %30.21 in10.0 miWest (280°)9.2 mphClear
2:52 AM12.0 °F1.0 °F61 %30.20 in10.0 miWest (280°)12.7 mph20.7 mphOvercast
3:52 AM12.0 °F0.0 °F59 %30.17 in10.0 miWNW (290°)10.4 mphOvercast
4:52 AM10.9 °F-2.0 °F56 %30.17 in10.0 miWNW (290°)12.7 mph21.9 mphMostly Cloudy
5:52 AM10.9 °F0.0 °F61 %30.17 in10.0 miWest (280°)13.8 mph20.7 mphOvercast
6:35 AM10.4 °F-0.4 °F62 %30.13 in10.0 miWNW (290°)10.4 mphMostly Cloudy
6:47 AM10.4 °F-0.4 °F62 %30.13 in10.0 miWNW (290°)9.2 mph19.6 mphMostly Cloudy
6:52 AM10.0 °F-0.9 °F61 %30.17 in10.0 miWest (280°)13.8 mph19.6 mphMostly Cloudy
7:50 AM8.6 °F1.4 °F73 %30.15 in1.8 miWNW (300°)10.4 mph0.00 inSnowLight Snow
7:51 AM9.0 °F1.9 °F73 %30.19 in1.8 miWNW (300°)11.5 mph0.00 inSnowLight Snow
8:02 AM8.6 °F1.4 °F73 %30.15 in1.2 miWNW (290°)10.4 mph0.00 inSnowLight Snow
8:12 AM8.6 °F-0.4 °F67 %30.15 in3.0 miWest (280°)12.7 mph17.3 mph0.00 inSnowLight Snow
8:52 AM8.1 °F-0.9 °F67 %30.21 in6.0 miWest (280°)15.0 mph23.0 mph0.00 inHaze
9:49 AM8.6 °F-0.4 °F67 %30.18 in5.0 miWNW (290°)17.3 mph27.6 mphHaze
9:52 AM9.0 °F-0.9 °F64 %30.22 in3.0 miWest (280°)16.1 mph27.6 mph0.00 inSnowLight Snow
10:52 AM7.0 °F-5.1 °F58 %30.24 in5.0 miWNW (300°)17.3 mph26.5 mph0.00 inSnowLight Snow
11:30 AM8.6 °F-4.0 °F57 %30.18 in3.0 miWNW (300°)17.3 mph27.6 mph0.00 inHaze
11:42 AM8.6 °F-5.8 °F52 %30.18 in3.0 miWNW (300°)17.3 mph26.5 mph0.00 inHaze
11:52 AM8.1 °F-5.1 °F55 %30.22 in8.0 miWNW (290°)17.3 mph24.2 mph0.00 inSnowLight Snow
12:12 PM10.4 °F-5.8 °F48 %30.17 in10.0 miNW (320°)19.6 mph24.2 mphMostly Cloudy
12:52 PM10.0 °F-8.0 °F44 %30.21 in10.0 miWNW (290°)18.4 mph26.5 mphMostly Cloudy
1:52 PM10.0 °F-9.0 °F42 %30.22 in10.0 miWNW (290°)19.6 mph26.5 mphClear
2:52 PM10.0 °F-8.0 °F44 %30.22 in10.0 miWest (280°)18.4 mph26.5 mphPartly Cloudy
3:52 PM10.0 °F-8.0 °F44 %30.23 in10.0 miWNW (290°)16.1 mph24.2 mphPartly Cloudy
4:52 PM8.1 °F-8.0 °F48 %30.24 in10.0 miWNW (300°)17.3 mph28.8 mphClear
5:52 PM7.0 °F-8.0 °F51 %30.26 in10.0 miWNW (290°)11.5 mph20.7 mphClear
6:52 PM6.1 °F-8.0 °F53 %30.27 in10.0 miWNW (290°)9.2 mph19.6 mphClear
7:52 PM5.0 °F-9.0 °F52 %30.28 in10.0 miWNW (290°)10.4 mph24.2 mphClear
8:52 PM3.9 °F-9.9 °F53 %30.31 in10.0 miWNW (300°)13.8 mph23.0 mphClear
9:52 PM3.9 °F-9.0 °F55 %30.31 in10.0 miWNW (300°)11.5 mph20.7 mphClear
10:52 PM3.0 °F-9.0 °F57 %30.31 in10.0 miWNW (300°)13.8 mph20.7 mphScattered Clouds
11:40 PM3.2 °F-9.4 °F56 %30.27 in10.0 miWNW (300°)15.0 mphPartly Cloudy
11:52 PM3.0 °F-9.0 °F57 %30.31 in10.0 miWNW (300°)12.7 mphScattered Clouds
Hourly data recorded from KPWK, located miles away from Chicago, Illinois







STORIES FROM OUR PARTNERS